[[{"header":{"parameterUnit":"m.s-1","parameterCategory":1,"la1":30.2992,"la2":30.254,"lo1":-89.0895,"lo2":-89.0443,"dy":0.0025,"dx":0.0025,"nx":19,"ny":19,"refTime":"2026-05-06T03:00:00:Z","depth":0,"parameterNumber":2,"parameterNumberName":"U-component_of_WINDS"},"data":[0,0,0,2.2642,2.2645,2.2775,2.2776,2.2948,2.295,0,0,0,0,0,0,0,0,0,0,0,2.2603,2.2604,2.2642,2.2645,2.2775,2.2776,2.2948,2.295,0,0,0,0,0,0,0,0,0,0,0,2.2603,2.2604,2.2605,2.2645,2.2775,2.2776,2.2948,2.2848,0,0,0,0,0,0,0,0,0,0,2.2721,2.2684,2.2604,2.2606,2.2646,2.2775,2.2776,2.2843,2.2854,2.2891,0,2.292,0,2.2937,2.2961,2.2962,0,0,0,2.2646,2.2675,2.271,2.2606,2.2647,2.2775,2.2716,2.2849,2.2862,2.2905,2.2922,2.2929,2.294,2.2963,2.2963,2.3165,2.3165,0,0,2.2638,2.2627,2.2701,2.2718,2.2694,2.2712,2.272,2.2857,2.2876,2.2923,2.2933,2.2943,2.2964,2.2965,2.3164,2.3165,0,0,0,2.2617,2.2622,2.2654,2.2711,2.2734,2.2716,2.2726,2.287,2.2881,2.2935,2.2945,2.2965,2.2967,2.3163,2.3164,2.3197,0,0,0,2.2613,2.261,2.2651,2.2645,2.2731,2.2803,2.2736,2.2871,2.2887,2.2944,2.2965,2.2969,2.3162,2.3163,2.3194,2.3215,0,0,0,2.2595,2.2608,2.2626,2.2644,2.27,2.2801,2.2819,2.2875,2.2894,2.2962,2.2969,2.3161,2.3163,2.3191,2.3211,2.3266,0,0,0,2.2573,2.2655,2.2627,2.2722,2.2698,2.2819,2.2819,2.291,2.2972,2.2966,2.3162,2.3164,2.3191,2.3208,2.3263,2.331,2.3328,0,0,2.267,2.2666,2.2723,2.2702,2.2824,2.28,2.2929,2.2998,2.3016,2.3115,2.312,2.3195,2.3211,2.3265,2.3434,2.3448,0,0,0,2.275,2.2791,2.2826,2.2884,2.2937,2.2986,2.3036,2.3063,2.3147,2.3063,2.323,2.3239,2.3272,2.3295,2.3308,2.3337,2.3174,2.3174,2.3173,2.2872,2.2889,2.2986,2.3019,2.3076,2.3128,2.3176,2.3221,2.3223,2.3262,2.3292,2.3391,2.3418,2.3428,2.3458,2.3317,2.3318,2.3318,2.3318,2.3016,2.3078,2.3078,2.3172,2.3191,2.3272,2.3326,2.3325,2.3405,2.337,2.34,2.3361,2.3443,2.3471,2.3321,2.332,2.332,2.3319,2.3319,2.3098,2.3131,2.316,2.3247,2.3313,2.3346,2.3422,2.3437,2.3453,2.3482,2.3516,2.3516,2.3518,2.3497,2.3497,2.3498,2.3498,2.3498,2.3498,2.3172,2.3204,2.3264,2.3329,2.337,2.3425,2.3479,2.3521,2.3571,2.3577,2.3577,2.3577,2.3446,2.3414,2.3504,2.3503,2.3502,2.3502,2.3501,2.3312,2.3283,2.3377,2.3418,2.3497,2.3563,2.3581,2.3665,2.3702,2.374,2.3734,2.3634,2.3632,2.3623,2.3596,2.3728,2.3728,2.3728,2.3728,2.3382,2.3382,2.3483,2.3547,2.3612,2.3638,2.3749,2.3793,2.3835,2.386,2.3844,2.3809,2.3799,2.3803,2.379,2.3765,2.3937,2.3937,2.3937,2.3471,2.3478,2.3566,2.3604,2.3668,2.3723,2.3828,2.3905,2.3947,2.3946,2.3881,2.3872,2.3817,2.3798,2.3795,2.3774,2.3729,0,0]},{"header":{"parameterUnit":"m.s-1","parameterCategory":1,"la1":30.2992,"la2":30.254,"lo1":-89.0895,"lo2":-89.0443,"dy":0.0025,"dx":0.0025,"nx":19,"ny":19,"refTime":"2026-05-06T03:00:00:Z","depth":0,"parameterNumber":3,"parameterNumberName":"V-component_of_WINDS"},"data":[0,0,0,1.2537,1.2542,1.2771,1.2772,1.3067,1.3069,0,0,0,0,0,0,0,0,0,0,0,1.2466,1.2468,1.2536,1.2542,1.2771,1.2772,1.3066,1.3069,0,0,0,0,0,0,0,0,0,0,0,1.2466,1.2468,1.247,1.2543,1.2771,1.2772,1.3066,1.2893,0,0,0,0,0,0,0,0,0,0,1.267,1.2602,1.2467,1.247,1.2544,1.2771,1.2772,1.2885,1.2904,1.2962,0,1.3011,0,1.3044,1.3089,1.309,0,0,0,1.2545,1.2586,1.265,1.247,1.2546,1.277,1.2669,1.2895,1.2917,1.2988,1.3015,1.3026,1.3049,1.3091,1.3092,1.3412,1.3413,0,0,1.2532,1.2507,1.2635,1.2663,1.2624,1.2661,1.2676,1.2908,1.2938,1.3016,1.3033,1.3054,1.3093,1.3095,1.341,1.3412,0,0,0,1.2494,1.2498,1.2556,1.2651,1.2692,1.2668,1.2684,1.2928,1.2948,1.3036,1.3057,1.3094,1.3098,1.3409,1.3411,1.3452,0,0,0,1.2487,1.2476,1.2551,1.2538,1.2688,1.2812,1.2698,1.2932,1.2959,1.3056,1.3094,1.3101,1.3407,1.341,1.3447,1.3476,0,0,0,1.2453,1.2472,1.2504,1.2536,1.2633,1.2809,1.2843,1.2939,1.2972,1.309,1.3101,1.3406,1.3409,1.3443,1.3469,1.3552,0,0,0,1.241,1.2539,1.2504,1.2657,1.2631,1.2831,1.2842,1.2994,1.3099,1.3096,1.3408,1.3411,1.3442,1.3466,1.3547,1.3616,1.3642,0,0,1.2559,1.2556,1.2648,1.2624,1.2823,1.2798,1.3006,1.3128,1.3165,1.3328,1.3336,1.3449,1.3469,1.3551,1.3797,1.3817,0,0,0,1.2687,1.2753,1.2811,1.2908,1.3003,1.3087,1.3179,1.3225,1.3364,1.3242,1.3502,1.3515,1.3564,1.3598,1.3615,1.3659,1.3425,1.3425,1.3425,1.2863,1.2899,1.3054,1.3118,1.3213,1.3306,1.3387,1.3465,1.3476,1.3537,1.3586,1.373,1.3769,1.3782,1.3828,1.3625,1.3625,1.3625,1.3626,1.3085,1.3183,1.3193,1.3346,1.3385,1.3516,1.3611,1.3615,1.3744,1.3697,1.3742,1.3687,1.3803,1.3845,1.3629,1.3628,1.3628,1.3628,1.3627,1.3204,1.3257,1.3308,1.3452,1.356,1.3622,1.3744,1.3776,1.3807,1.3852,1.3907,1.3907,1.391,1.3876,1.3876,1.3877,1.3877,1.3878,1.3878,1.3307,1.3363,1.346,1.357,1.3636,1.3728,1.3823,1.3891,1.3975,1.3989,1.399,1.3995,1.3807,1.3759,1.3886,1.3885,1.3884,1.3883,1.3882,1.3518,1.3474,1.3625,1.3691,1.3823,1.3928,1.3967,1.4102,1.4163,1.4223,1.4219,1.4074,1.4075,1.4062,1.4022,1.421,1.421,1.421,1.421,1.3618,1.362,1.378,1.3884,1.3991,1.404,1.4212,1.4288,1.4361,1.4401,1.4379,1.4329,1.4314,1.4324,1.4305,1.4269,1.4514,1.4515,1.4515,1.3749,1.3763,1.3902,1.3968,1.4074,1.4165,1.4328,1.445,1.4524,1.4528,1.4434,1.4421,1.4342,1.4314,1.4316,1.4285,1.422,0,0]}]]